GFSSE_sfc_wetblb_057.txt.gz
Wetbulb
74.10 76.96 79.21 79.86 79.89 79.61 79.26 78.78 78.37 77.71 77.31 77.52 77.73 77.43 76.21 77.15 77.59 77.43 77.09 77.23 77.55 76.76 76.58 76.77 76.23 76.49 77.01 76.51 76.46 76.64 75.69 75.90 76.06 75.48 76.10 75.94 75.87 75.79 75.83 74.95 74.65 72.69 74.05
75.14 77.15 79.31 79.72 79.94 79.91 79.59 79.25 78.58 78.38 77.82 77.70 77.93 77.39 77.13 77.19 76.95 76.91 77.28 77.09 76.83 76.85 76.50 77.04 76.99 76.84 76.87 76.67 76.05 75.72 75.44 76.09 75.82 75.86 75.99 75.88 75.77 75.90 77.15 75.90 75.49 73.13 74.63
75.11 76.81 77.88 79.46 79.97 79.79 79.60 79.40 78.94 78.42 77.92 77.72 78.03 77.59 77.38 77.15 76.43 75.81 75.86 76.53 76.56 76.94 76.70 76.74 76.58 76.58 76.86 76.18 75.97 74.95 75.81 76.04 75.66 76.15 74.87 72.61 73.71 75.63 75.09 76.16 75.81 73.58 74.61
75.19 75.61 77.37 79.12 79.43 79.68 79.45 79.30 79.15 78.61 77.59 77.67 77.88 77.84 77.42 77.47 77.14 76.74 76.02 74.59 75.57 76.05 76.47 76.27 76.63 76.41 76.16 75.99 75.56 75.41 75.73 76.00 75.41 75.86 74.21 72.75 73.44 75.79 75.83 74.04 73.79 74.69 75.34
74.68 76.39 77.20 79.37 79.46 79.23 79.33 79.27 79.07 78.73 78.25 77.98 77.52 77.16 77.11 77.14 77.26 76.73 76.41 75.19 74.78 74.40 75.84 76.25 76.19 75.92 75.39 76.07 75.33 75.51 75.58 75.35 75.30 75.01 73.39 70.38 71.49 75.18 75.82 74.63 75.11 75.12 74.83
75.52 77.05 78.81 79.33 78.68 78.73 79.35 79.23 79.09 78.91 78.54 78.15 77.29 77.18 76.93 77.02 77.05 76.95 76.51 76.42 76.36 75.31 75.06 75.70 76.30 75.79 76.08 76.09 75.67 75.64 75.58 75.49 75.04 73.99 73.26 73.81 72.31 75.66 76.11 74.85 75.01 75.22 74.34
74.57 76.60 77.42 79.16 79.08 78.95 79.23 79.02 78.66 78.63 78.47 78.09 77.27 77.07 76.96 76.88 77.02 77.26 76.89 76.56 76.44 76.29 75.53 75.53 75.54 76.17 76.24 76.19 75.66 75.82 75.85 75.30 74.15 73.19 72.54 72.50 73.92 76.56 75.57 74.67 74.52 74.52 74.12
74.24 75.88 76.49 78.44 78.75 78.69 78.20 78.04 77.94 77.57 77.39 77.46 77.19 77.01 76.68 76.68 77.03 77.20 76.96 76.66 76.53 76.41 76.72 75.30 75.48 76.11 76.30 76.50 76.04 76.11 75.83 75.51 74.57 73.50 72.32 72.45 75.42 76.17 75.32 74.54 74.21 75.17 74.20
74.62 75.00 75.75 76.18 76.81 77.84 77.84 77.76 77.74 77.64 77.60 77.96 78.00 77.99 77.12 76.37 76.00 76.06 76.91 76.95 76.03 75.94 76.19 76.54 75.50 75.70 76.24 76.58 76.19 76.30 75.81 75.70 73.97 73.69 72.83 72.33 76.00 75.90 74.57 75.09 74.08 75.14 73.62
74.48 74.29 74.54 75.27 75.34 75.11 75.70 77.94 78.17 78.09 77.23 77.19 77.36 77.49 77.06 76.88 76.52 76.47 77.42 77.31 75.83 75.75 75.48 75.65 76.24 76.44 76.13 77.17 76.61 76.38 75.93 75.70 72.37 72.11 71.88 71.18 76.02 76.42 75.11 75.74 75.04 74.21 75.16
74.18 74.12 74.29 74.66 74.57 74.54 75.19 76.84 78.30 77.68 77.54 77.45 76.78 77.02 76.57 74.47 74.25 75.30 76.20 76.56 76.03 75.81 75.73 75.68 76.30 76.93 76.39 75.06 76.81 76.41 76.40 72.63 71.48 72.32 72.61 75.06 75.82 76.24 75.90 75.82 75.66 74.55 74.14
71.94 73.30 74.29 74.49 74.94 74.71 76.54 75.48 75.29 75.60 74.72 75.15 74.97 74.61 74.18 73.64 73.42 74.63 75.67 77.17 76.72 76.28 76.11 76.13 76.86 76.24 76.05 73.18 74.49 75.72 73.15 72.54 71.74 72.23 72.22 75.47 75.90 76.53 76.06 76.53 76.31 75.02 73.93
72.61 73.65 73.82 74.51 74.73 74.36 73.78 74.90 74.30 74.68 74.18 74.35 73.81 74.40 74.39 74.41 72.41 72.75 73.28 73.87 73.63 75.65 73.58 75.04 73.86 74.19 73.54 72.65 72.13 73.15 73.04 72.73 72.06 72.46 73.98 75.83 76.06 76.23 76.07 76.66 76.41 75.59 74.60
72.53 73.27 74.30 74.80 74.50 72.65 68.63 67.21 73.66 73.70 71.70 71.18 72.07 72.39 72.00 72.25 71.89 71.79 71.94 71.64 71.63 71.82 71.72 69.22 67.29 67.30 68.90 71.97 72.04 72.54 72.53 71.38 70.39 72.23 74.12 76.19 75.72 76.42 76.56 76.30 76.08 75.67 75.43
71.41 72.72 73.95 74.62 74.72 72.78 72.54 72.75 71.15 68.75 72.29 70.54 70.33 70.90 69.43 71.62 71.60 71.64 71.28 71.69 71.43 70.73 71.99 69.78 68.11 68.31 68.17 70.26 72.93 72.61 72.51 71.79 71.88 72.34 73.60 76.78 75.74 76.15 76.98 76.40 76.56 76.19 76.02
72.25 72.61 73.46 74.26 74.58 74.27 73.64 71.38 70.96 71.71 72.06 72.40 71.43 69.84 68.60 72.66 72.37 71.51 71.26 69.82 70.09 71.98 70.00 68.67 68.85 68.80 70.72 70.12 72.06 72.26 71.62 72.26 72.71 71.99 72.71 73.85 76.28 76.10 76.20 76.72 76.72 76.92 76.39
72.18 73.63 73.60 74.92 75.08 73.99 73.95 73.53 73.18 72.43 73.08 71.50 71.06 71.50 72.79 73.10 72.15 71.42 70.90 70.20 69.45 70.93 68.20 68.67 67.81 67.88 69.08 70.76 71.89 73.60 73.22 72.03 72.27 72.44 73.53 72.88 74.60 76.38 76.12 75.97 76.87 76.92 76.89
72.75 74.25 74.69 76.10 74.44 74.06 74.10 73.22 72.27 70.85 71.18 70.64 70.14 70.22 70.27 72.62 72.45 71.34 70.66 69.62 70.67 70.40 69.48 68.20 68.17 68.56 69.03 70.15 70.71 70.74 72.31 72.63 72.55 73.53 73.37 73.73 73.78 74.24 75.30 75.75 76.05 76.28 77.18
73.22 74.64 74.65 74.32 73.59 73.67 73.23 72.92 71.61 70.46 71.01 70.09 69.17 68.91 69.23 72.09 72.52 71.53 70.93 70.50 70.13 67.48 69.60 69.73 69.08 70.14 70.04 69.05 70.14 70.45 70.75 70.97 72.36 73.65 73.09 72.46 73.17 73.29 73.53 75.60 75.71 75.63 76.82
74.64 75.56 74.69 74.22 73.48 73.28 73.02 72.64 71.42 69.03 69.37 70.22 70.04 70.19 70.95 70.35 71.99 70.89 70.54 70.16 71.10 68.49 67.74 68.40 69.28 69.76 68.13 67.39 71.75 70.61 69.54 70.49 71.44 71.64 71.62 72.93 72.36 72.57 72.82 72.61 73.35 73.63 75.56
75.53 75.40 74.63 74.04 73.69 72.54 72.09 71.08 69.48 66.53 66.10 67.10 67.78 70.46 70.49 71.00 71.43 71.53 71.50 71.11 71.09 71.20 71.40 70.60 69.68 67.59 67.95 69.12 67.61 67.48 68.65 70.70 70.86 70.57 71.56 71.29 71.86 71.96 72.63 72.19 71.92 70.97 72.63
74.95 75.19 75.36 74.00 73.20 73.06 72.75 72.55 70.82 68.06 67.52 67.00 67.43 69.00 70.48 70.66 72.36 71.60 71.60 70.87 70.75 70.88 70.24 69.02 68.77 67.34 67.59 68.31 66.29 64.81 62.68 65.60 68.60 70.29 70.73 71.29 70.63 70.85 71.07 72.16 71.34 70.72 70.63
74.63 75.80 75.24 73.51 72.71 73.40 73.09 71.29 69.97 69.63 68.87 68.28 69.62 71.13 72.57 73.85 73.53 72.59 71.72 70.81 71.26 70.64 69.59 69.15 69.19 67.95 65.88 66.80 67.64 65.21 62.05 61.22 63.91 67.45 69.09 69.39 69.48 69.55 70.20 70.42 70.99 71.10 70.68
75.18 76.73 75.30 74.05 73.86 73.69 72.04 70.44 68.00 66.54 66.47 68.64 70.23 71.58 71.83 72.78 72.21 72.78 71.31 71.09 70.22 70.17 69.07 69.18 70.06 68.26 67.68 66.06 67.12 69.23 67.83 66.56 62.79 61.74 66.18 68.13 69.30 69.39 69.19 69.96 69.44 70.95 70.70
76.00 76.38 75.32 74.20 73.99 73.76 71.76 71.42 69.92 67.98 68.82 70.72 70.99 70.83 70.48 71.16 71.63 71.23 70.96 70.12 69.65 69.53 69.64 69.70 69.46 68.76 68.18 67.45 67.54 67.32 67.11 66.89 66.89 64.32 61.73 64.01 66.09 67.59 68.85 70.57 70.53 70.44 69.64
76.29 76.13 74.53 73.26 73.29 72.09 70.45 71.31 69.23 68.68 69.68 69.85 69.24 69.27 69.85 70.04 70.23 71.18 71.16 69.56 68.85 69.01 69.32 68.40 69.43 69.18 69.10 68.65 68.24 67.88 67.70 65.99 64.50 64.37 63.71 63.51 64.15 64.55 65.98 67.99 69.39 69.46 69.98

GFSSE_sfc_wetblb_060.txt.gz
Wetbulb
74.53 76.79 79.50 79.60 78.73 78.30 78.03 77.13 76.83 76.90 77.26 77.19 77.48 77.26 78.09 77.75 77.40 77.46 77.46 77.09 76.50 76.53 76.39 76.20 76.53 76.87 76.71 76.66 76.60 75.73 75.64 75.47 75.69 75.93 75.95 75.70 75.52 75.69 76.02 74.94 74.93 72.32 73.57
75.59 77.16 79.36 79.47 79.22 78.33 78.12 77.81 77.26 77.39 77.31 77.34 77.39 76.75 77.14 77.63 77.03 77.19 77.43 77.10 76.42 76.28 76.97 76.56 76.69 76.77 76.62 76.10 76.21 75.54 75.94 75.96 75.99 76.25 75.92 75.90 75.38 75.11 75.26 74.74 73.55 71.77 73.25
75.84 76.91 78.13 79.35 79.61 78.84 78.34 78.04 77.68 77.44 77.32 77.24 77.40 77.09 76.59 77.18 76.44 76.71 76.92 76.90 77.31 76.77 76.69 76.61 76.77 76.70 76.48 75.94 75.07 75.96 75.77 76.08 76.31 75.92 75.71 73.07 73.19 75.84 75.50 74.80 73.75 75.32 75.43
76.01 76.20 77.50 79.26 79.47 79.41 79.06 78.54 78.05 77.52 77.23 77.42 77.20 77.26 76.64 76.68 76.22 75.63 75.64 76.39 76.63 76.79 76.32 76.59 76.04 76.31 75.86 75.83 75.12 75.89 76.03 75.84 76.17 74.98 72.66 73.07 73.39 74.96 75.06 74.05 73.77 74.97 74.76
75.21 76.26 77.04 79.61 79.57 78.82 78.90 79.02 78.57 78.12 77.42 77.12 76.65 76.95 76.87 76.66 76.67 76.52 75.10 75.02 75.73 76.17 76.50 76.46 75.95 76.08 75.35 75.85 74.98 75.58 75.43 75.94 76.12 74.92 72.52 70.65 71.90 74.63 73.72 73.99 74.95 74.64 72.77
75.43 76.27 78.70 79.23 78.66 78.64 78.81 78.75 78.31 77.98 77.93 77.63 76.87 76.88 76.50 76.29 76.43 76.26 76.20 75.71 75.18 75.13 75.81 76.38 75.99 75.32 75.07 75.95 75.11 75.22 74.81 74.94 75.01 73.15 72.55 72.62 72.37 75.46 74.40 75.25 75.65 74.74 73.92
75.78 76.79 77.49 79.10 79.04 78.80 78.67 78.59 78.36 77.94 77.54 77.23 76.87 76.88 76.77 76.47 76.14 75.88 76.31 75.95 76.32 75.15 75.43 75.79 76.42 75.68 75.75 75.62 75.20 74.50 74.49 74.75 73.41 72.40 71.45 72.13 72.49 76.58 75.06 75.46 75.43 73.87 74.91
75.67 76.27 76.89 78.75 78.69 78.21 78.14 77.92 77.55 77.27 77.34 77.34 77.08 76.79 76.71 76.44 76.51 75.85 75.62 76.11 76.17 76.24 75.39 75.40 75.49 76.28 76.28 76.06 75.61 75.05 74.08 74.27 74.16 72.92 71.62 72.14 74.58 76.48 75.03 74.65 74.52 74.60 72.99
75.66 75.45 75.82 76.34 76.99 78.13 77.83 77.67 77.54 77.36 77.12 77.12 76.88 76.91 76.47 76.40 76.27 76.24 75.95 75.71 75.52 75.91 76.47 75.31 75.21 75.76 75.96 76.14 75.60 75.26 75.19 74.82 73.29 72.20 72.10 72.13 74.86 75.76 75.29 74.53 74.59 75.00 73.20
74.56 75.04 75.05 75.06 74.74 75.02 75.46 77.57 77.47 77.54 77.47 77.28 77.20 77.07 77.02 76.71 76.41 76.44 77.04 76.96 75.78 75.54 75.54 75.70 75.52 75.56 75.76 76.15 76.15 75.90 75.25 74.69 72.79 71.30 71.41 72.00 75.15 75.39 74.89 73.68 75.03 74.29 73.97
73.37 73.95 74.28 74.47 74.40 74.45 74.87 76.11 77.91 77.48 77.31 77.20 76.73 77.48 76.40 74.28 73.97 75.11 76.25 76.40 76.02 75.79 75.54 75.68 76.00 76.48 75.86 75.49 76.08 76.31 76.24 72.51 71.90 70.99 70.94 73.76 75.27 75.83 74.70 75.50 74.52 74.81 74.99
71.47 72.26 73.37 73.60 73.59 74.12 75.94 75.13 75.17 75.03 74.45 74.38 74.55 73.82 74.15 73.58 73.21 74.53 75.48 76.23 76.45 76.17 75.89 75.43 75.85 76.07 75.86 72.78 73.11 75.49 73.02 72.36 71.74 72.35 71.40 75.03 75.39 76.45 76.10 75.77 75.43 74.31 74.40
72.06 72.92 73.39 73.51 73.86 73.76 74.47 74.48 74.68 74.29 73.76 73.80 74.55 73.88 73.46 73.61 72.55 73.01 72.29 74.03 73.63 75.61 73.06 74.36 73.14 72.15 72.13 72.67 71.98 72.67 72.73 72.52 71.51 72.03 72.71 75.37 75.42 75.91 75.59 75.81 75.86 74.88 74.06
71.72 73.03 73.63 73.79 73.84 73.30 73.24 73.29 73.39 73.63 73.22 72.86 73.92 73.61 72.26 71.08 70.65 70.92 71.46 71.19 71.87 71.43 70.03 67.47 66.37 67.07 68.12 69.55 70.81 71.57 72.44 72.42 71.16 71.46 71.95 76.11 75.62 76.18 76.58 75.93 75.84 75.53 74.94
71.36 72.49 73.34 73.81 73.30 72.80 69.43 67.64 70.05 70.66 71.78 69.71 71.40 71.30 70.18 69.90 70.30 70.54 70.73 70.42 70.15 70.69 70.10 68.50 68.46 69.06 68.77 69.77 69.81 69.58 71.81 71.50 70.77 71.08 72.14 76.70 75.93 76.13 76.90 76.57 76.05 75.87 75.62
72.14 72.42 73.41 73.89 73.33 71.63 71.48 70.76 69.65 69.27 71.06 70.08 70.71 70.75 70.22 70.01 71.27 70.35 69.06 68.86 69.02 69.95 68.70 70.08 68.88 67.35 68.01 69.78 70.16 70.85 71.13 72.78 71.39 71.19 71.83 73.12 76.18 75.77 76.19 77.15 76.46 76.20 75.68
71.72 72.85 72.74 72.84 73.58 71.84 71.35 70.91 70.50 71.03 71.82 70.85 70.51 70.19 69.10 71.43 71.20 70.32 69.95 69.22 68.72 68.95 67.83 67.76 67.96 68.16 68.64 69.69 68.81 70.63 72.49 71.52 71.27 71.86 71.84 71.68 73.97 76.50 76.09 76.25 75.75 76.74 76.90
71.51 71.83 72.33 75.10 73.49 73.13 72.10 72.62 70.37 70.24 70.22 69.86 70.69 70.65 71.91 72.29 71.78 70.56 69.92 69.00 69.62 70.44 68.43 67.89 67.33 67.65 67.42 68.16 67.92 69.69 71.17 71.73 71.88 71.59 72.44 72.03 72.12 73.46 75.77 76.32 75.78 75.58 76.03
72.43 72.42 72.81 73.55 72.79 72.64 71.74 71.42 70.21 70.25 69.34 69.36 69.25 68.64 68.96 72.04 72.01 71.02 70.08 69.09 69.69 67.40 68.32 68.66 69.25 68.25 68.86 69.31 69.45 69.81 70.12 70.42 70.69 72.84 72.23 72.48 72.46 72.94 73.18 74.92 75.62 75.49 75.86
73.40 73.28 73.17 72.56 71.85 72.29 71.92 70.69 69.43 67.64 68.91 69.43 69.11 68.84 69.32 68.84 71.93 71.15 70.46 69.73 70.10 67.87 67.10 67.78 67.55 69.56 68.98 67.20 68.34 69.13 68.88 69.03 69.78 70.16 70.99 72.50 72.25 72.57 72.31 72.25 73.74 73.35 75.07
73.89 73.36 72.78 71.80 72.01 71.59 71.21 69.77 67.98 65.29 65.64 66.70 67.13 69.50 69.73 70.09 71.15 70.21 69.77 69.99 70.24 70.02 68.93 69.02 68.52 67.60 66.41 69.24 66.95 66.41 66.84 68.35 69.29 69.41 69.99 70.57 71.43 72.10 71.93 72.17 70.44 70.60 71.14
73.69 73.34 72.76 72.25 71.52 70.45 70.93 70.89 69.06 66.43 65.65 65.50 65.90 66.64 70.24 70.70 71.13 70.54 70.39 70.12 70.48 69.56 69.55 69.25 68.95 66.54 66.59 67.44 65.11 63.55 61.94 63.70 66.59 68.96 69.40 69.96 70.01 69.67 70.32 71.93 70.85 70.39 70.73
73.41 73.52 73.45 72.64 71.83 71.72 70.97 69.78 68.25 67.92 67.06 66.19 67.49 69.26 70.40 70.60 71.32 71.66 70.97 69.69 69.69 68.95 68.73 68.63 68.38 66.73 65.45 66.03 66.88 64.53 60.57 60.40 62.22 65.06 67.49 68.46 68.43 68.46 69.40 70.20 70.53 70.60 70.33
73.62 74.61 74.05 72.90 72.18 72.25 70.52 68.87 66.61 64.87 64.53 66.84 68.72 69.51 70.70 71.83 71.38 70.65 70.71 69.81 68.57 68.48 68.25 68.61 69.49 67.22 66.05 64.93 65.73 67.60 66.08 64.81 61.75 60.41 65.77 67.03 68.32 69.52 69.34 68.70 68.55 69.77 69.09
75.02 74.94 74.11 72.37 71.65 72.43 70.37 69.49 67.15 65.19 66.30 68.72 69.71 69.65 69.36 69.91 70.42 70.46 69.70 68.52 67.71 67.44 67.38 67.76 67.69 66.99 66.97 66.25 65.43 65.75 65.77 65.81 65.24 63.14 60.37 64.63 66.15 66.71 68.18 69.88 69.41 70.65 68.57
75.65 74.78 73.29 71.65 71.65 71.73 69.88 70.61 68.94 67.37 68.14 67.98 67.71 67.89 68.39 68.84 68.55 69.57 68.90 67.69 66.55 67.58 68.64 67.69 68.07 67.98 67.53 66.95 66.88 66.67 66.26 64.51 63.63 63.37 61.81 63.54 63.30 64.40 66.19 67.98 69.29 69.13 68.66

GFSSE_sfc_wetblb_063.txt.gz
Wetbulb
73.90 75.09 78.97 78.23 78.02 77.55 76.77 76.50 77.09 77.37 77.47 77.57 78.27 77.88 77.50 77.04 76.90 76.90 76.97 76.43 76.36 76.10 76.10 75.83 76.13 75.95 76.42 76.02 75.61 75.30 75.41 75.24 76.08 75.51 75.86 75.71 75.38 74.78 74.32 74.67 74.92 72.33 73.22
75.28 76.96 79.26 78.93 78.15 77.88 76.94 76.88 76.91 77.35 77.10 76.56 77.68 77.50 77.30 77.04 77.05 77.45 76.96 76.28 76.56 76.45 75.88 76.09 76.01 76.09 76.20 76.03 75.35 75.16 75.00 75.55 75.09 75.85 75.83 75.66 75.35 74.71 73.88 74.38 72.99 72.13 74.50
75.35 76.78 77.98 79.05 78.50 78.15 77.43 77.18 77.14 77.08 77.00 76.89 76.81 76.85 76.77 76.97 76.98 76.96 76.85 76.58 76.23 76.82 76.57 75.92 76.15 75.95 75.76 75.27 75.36 75.44 75.28 75.91 76.24 75.71 75.46 72.24 72.39 74.99 73.95 73.46 73.75 73.26 73.88
75.70 76.00 77.26 79.09 78.88 78.19 77.74 77.33 77.25 77.12 77.01 77.10 76.79 76.24 76.48 75.63 75.79 76.74 76.65 76.53 76.74 76.67 76.51 76.10 76.41 76.28 75.76 74.94 75.82 75.45 75.85 75.76 75.59 75.77 72.81 72.41 73.32 75.23 73.79 73.94 75.18 74.75 73.11
75.37 76.11 76.94 79.12 78.85 78.08 77.85 77.70 77.43 77.33 77.20 76.96 77.06 76.77 76.37 76.43 76.12 75.00 75.60 76.00 76.04 76.34 76.63 76.18 76.34 75.52 75.65 75.26 75.51 75.52 75.57 75.31 75.08 74.07 71.55 71.43 71.37 73.83 73.78 74.10 74.43 74.85 74.41
75.39 75.65 78.45 78.98 78.00 77.78 77.79 77.69 77.60 77.26 76.61 76.93 76.84 76.82 76.47 76.34 76.45 76.09 75.38 74.73 75.05 75.98 76.28 76.02 75.45 75.08 76.15 75.36 75.14 75.12 75.35 75.18 75.29 72.84 70.94 72.84 71.58 73.43 73.94 75.03 74.81 72.36 74.10
74.95 76.20 76.86 78.84 78.80 78.54 77.71 77.60 77.39 77.24 77.00 76.80 76.68 76.57 76.50 76.50 76.39 76.02 76.34 76.04 75.52 75.16 75.60 75.73 75.28 75.74 75.64 75.73 74.46 74.16 74.46 74.60 72.67 71.09 71.13 72.17 71.87 75.43 75.03 75.30 74.43 73.98 72.93
75.26 75.81 76.46 78.33 78.25 77.92 77.72 77.55 77.31 77.01 76.93 77.08 76.98 76.73 76.65 76.46 75.66 75.77 76.14 76.22 76.29 75.77 75.45 75.46 75.87 75.82 75.95 75.84 75.04 74.34 74.29 74.33 72.81 72.22 71.31 71.39 73.70 76.18 74.84 75.75 74.19 74.08 74.63
75.84 75.63 75.27 75.93 76.60 77.90 77.66 77.50 77.29 77.09 77.17 77.20 77.04 76.71 76.57 76.24 76.17 76.04 76.19 76.05 76.18 76.41 76.00 75.50 75.27 75.95 75.98 75.94 75.81 75.21 74.06 73.80 71.88 71.61 71.64 71.75 74.76 75.99 75.00 74.38 74.70 73.37 73.06
74.71 74.72 74.31 74.43 74.68 74.77 75.01 77.48 77.33 77.26 77.14 77.20 76.93 76.88 76.50 76.41 76.03 75.95 76.56 76.28 75.62 75.40 76.33 75.93 75.40 75.27 75.99 75.68 75.69 75.60 74.52 73.43 71.62 70.45 70.95 71.65 75.43 75.59 75.07 74.58 74.59 74.42 73.53
73.43 73.65 73.77 73.49 73.15 73.62 74.21 75.58 77.42 77.33 77.17 77.18 76.75 77.17 76.26 73.72 73.86 74.79 75.94 76.08 75.67 75.38 75.27 75.44 75.96 75.91 75.85 75.92 75.76 75.82 75.09 72.20 71.38 70.32 70.68 73.93 75.27 75.61 74.94 73.79 74.76 74.33 73.72
71.33 72.34 73.09 73.25 73.00 73.13 75.28 74.36 74.71 74.39 74.08 73.59 74.13 73.67 73.72 73.34 72.74 74.35 75.53 76.36 75.77 75.90 75.65 75.27 75.48 75.61 75.48 72.70 71.87 74.73 72.79 72.38 71.42 71.13 70.86 74.23 75.36 75.30 75.48 75.14 74.76 74.74 74.69
70.91 71.92 72.80 73.33 72.97 72.91 73.67 73.96 73.92 73.87 73.43 73.56 73.76 72.98 72.99 72.88 72.44 73.19 72.60 73.24 72.94 75.61 72.86 74.03 72.29 71.35 71.67 72.07 71.80 71.26 72.26 72.13 71.42 71.25 72.32 75.20 75.20 75.82 75.73 76.20 75.53 74.48 74.32
70.89 71.65 72.49 73.02 72.77 72.94 72.96 73.69 73.44 73.49 73.28 72.92 73.66 73.58 72.17 71.54 70.72 70.16 70.93 71.73 71.69 72.03 70.18 69.34 68.35 67.57 67.58 68.86 69.64 70.17 70.76 71.69 71.52 71.64 71.47 75.19 75.59 75.73 76.03 75.79 75.71 75.38 74.39
70.83 72.03 72.46 72.99 72.92 73.13 72.14 71.40 71.43 72.31 72.27 71.56 71.52 71.88 71.97 70.39 69.23 69.82 70.21 69.98 70.41 70.84 69.73 67.61 66.92 67.85 68.25 68.87 69.15 69.00 69.68 71.08 71.64 70.53 70.47 74.16 76.12 75.43 75.40 75.81 75.67 75.68 75.33
71.13 71.75 72.59 72.92 73.01 72.28 70.49 69.18 67.68 69.28 69.52 70.18 70.55 70.36 70.53 69.80 70.00 69.44 69.17 69.19 69.33 69.71 69.53 68.72 68.06 67.61 66.85 68.49 68.69 69.93 69.83 70.72 71.20 70.65 70.28 71.25 76.60 75.81 75.72 76.09 76.29 76.01 75.84
71.25 71.90 71.94 72.86 73.20 71.48 70.41 69.86 69.21 70.14 71.54 70.39 71.25 70.92 70.51 69.41 70.83 69.62 68.20 67.99 68.17 69.28 68.26 67.25 67.28 67.25 67.30 68.35 67.59 68.69 70.26 71.37 71.55 71.39 71.41 70.71 72.12 76.24 75.59 75.86 75.74 75.98 76.60
71.39 71.26 72.07 73.67 72.98 71.44 70.33 70.59 69.51 69.39 69.67 70.14 70.73 70.39 70.26 70.76 71.68 69.55 69.39 68.42 68.60 68.94 67.14 66.84 65.81 66.33 66.89 66.48 66.62 67.59 69.77 71.24 71.50 71.68 71.73 71.45 71.51 73.07 74.97 76.15 75.76 75.63 75.96
70.99 71.33 71.19 72.61 72.28 71.62 71.28 69.66 69.26 68.56 68.29 69.08 69.12 69.64 70.94 71.26 71.48 70.49 69.61 68.26 68.67 68.60 68.24 67.79 67.59 67.61 66.82 67.59 68.04 69.53 69.61 69.46 70.32 72.25 71.33 71.74 71.45 71.86 72.39 74.86 75.16 75.35 75.64
70.90 71.29 71.69 72.62 71.66 70.81 69.75 68.87 67.20 67.68 68.02 67.99 67.50 67.77 68.23 68.01 70.47 70.96 70.14 69.26 68.92 68.02 67.25 67.25 67.04 67.59 68.17 67.43 68.12 68.14 67.88 68.69 69.43 69.25 70.11 72.13 71.72 72.16 72.25 71.95 72.63 73.99 75.54
71.62 71.32 71.81 71.23 70.36 70.34 69.10 68.40 66.87 63.95 65.71 66.73 67.61 68.87 69.22 69.84 70.00 70.09 68.90 69.28 69.26 69.01 68.11 68.47 68.13 67.18 66.96 67.79 65.97 65.66 65.84 67.32 67.81 68.50 69.22 69.25 69.95 71.79 71.39 72.19 71.20 71.42 71.81
71.58 71.82 71.67 71.15 70.63 70.27 70.41 69.89 68.42 65.01 65.01 64.71 65.47 66.49 69.04 69.26 70.36 70.24 68.94 69.37 69.98 68.78 68.63 69.39 68.81 66.14 65.61 66.93 64.42 62.93 60.74 63.09 64.49 67.05 68.08 68.58 69.01 70.24 70.88 71.55 71.20 71.41 70.79
71.77 71.79 71.54 70.86 70.27 69.84 70.80 68.51 67.34 66.38 65.50 65.18 66.11 67.48 69.48 69.71 69.50 70.72 70.58 69.08 68.65 68.15 67.45 67.25 67.23 66.62 64.99 65.25 65.91 63.42 59.53 58.94 60.93 65.28 67.57 68.20 68.53 67.81 69.05 69.80 70.47 70.50 69.89
72.25 72.84 72.23 72.09 70.92 70.34 70.15 67.55 66.43 64.44 62.84 64.95 66.76 68.56 69.78 71.06 70.95 70.69 69.99 68.91 68.04 67.72 66.69 67.27 68.65 66.96 65.30 64.04 64.82 66.62 64.83 63.55 60.95 59.44 65.10 66.91 67.59 68.11 68.13 69.28 69.58 70.03 69.51
73.09 72.92 72.96 72.73 70.88 70.29 69.03 67.88 65.69 63.70 65.24 67.59 68.22 68.29 68.44 68.53 69.74 69.85 68.78 67.46 66.72 66.40 66.31 66.87 66.96 66.44 66.44 65.24 64.41 64.53 64.21 64.51 63.81 61.76 59.79 64.19 66.25 66.45 68.44 68.72 68.72 69.60 67.88
73.90 73.52 71.72 70.43 70.36 70.16 69.34 68.33 66.87 65.36 66.87 67.23 67.09 67.02 67.41 67.65 67.56 68.26 67.79 66.29 65.64 65.84 66.29 66.80 67.18 66.58 66.30 66.19 65.98 65.53 65.28 63.66 62.90 62.88 63.18 63.64 63.76 64.70 65.17 66.63 68.69 68.29 68.29

GFSSE_sfc_wetblb_069.txt.gz
Wetbulb
74.23 75.75 77.93 77.38 77.00 76.83 76.76 76.95 77.50 77.91 77.99 78.34 77.94 77.13 76.77 76.11 75.99 75.56 75.86 75.72 75.98 75.96 76.24 76.31 75.89 75.81 75.74 75.57 75.16 75.55 75.00 75.02 74.74 75.64 75.29 74.68 74.94 74.95 74.46 74.89 74.71 74.64 74.76
75.21 76.03 77.53 77.70 77.30 77.08 76.66 77.23 77.22 77.34 77.42 77.50 77.71 77.01 76.59 76.24 76.14 76.19 76.30 76.49 76.20 76.18 76.30 76.24 76.22 76.12 76.16 75.72 75.44 75.05 75.83 75.18 75.85 75.51 74.80 74.42 74.98 75.10 74.75 72.96 72.28 73.42 73.69
75.18 76.32 76.85 77.90 77.70 77.15 77.13 77.35 77.33 77.43 76.95 76.94 76.98 76.75 76.54 76.51 76.84 76.50 76.14 76.01 76.35 75.65 76.38 76.39 76.08 76.26 75.60 74.72 74.78 74.75 74.58 75.67 75.65 75.72 75.45 73.85 73.78 74.24 73.45 74.28 73.45 72.44 74.10
75.94 76.56 77.05 77.52 77.83 77.42 77.51 77.55 76.92 77.43 77.38 77.37 77.26 77.22 77.22 76.94 76.65 76.58 76.21 76.47 76.21 76.18 76.55 76.30 76.10 75.93 75.08 75.11 74.83 75.24 75.13 75.62 75.44 75.47 74.02 73.67 72.01 73.26 72.93 73.59 74.56 74.45 73.33
76.30 76.85 77.50 77.65 78.09 77.24 77.21 77.59 77.50 77.37 77.02 76.99 77.08 77.00 76.92 76.95 76.36 76.32 75.78 76.01 75.93 76.27 76.35 76.50 76.09 75.30 75.38 75.58 75.63 75.91 75.91 75.82 75.42 74.80 74.88 74.11 73.35 73.40 75.19 75.18 73.44 74.96 74.89
76.26 76.69 77.86 78.07 78.03 77.15 77.35 77.47 77.21 77.47 77.38 76.62 76.70 76.36 75.93 75.95 76.45 76.18 76.26 75.81 76.02 76.00 76.07 76.18 75.86 75.63 75.58 75.62 75.82 75.89 75.82 75.20 74.71 74.64 75.20 74.82 74.04 73.37 74.94 74.67 74.16 73.47 74.70
76.03 76.59 77.50 78.22 78.26 78.40 77.91 77.31 77.64 77.15 76.92 76.91 76.60 76.69 76.80 76.54 75.96 75.52 75.47 75.68 75.96 76.17 76.07 76.12 75.61 76.02 75.54 75.55 75.27 74.99 74.54 74.77 74.32 74.30 74.37 74.30 73.64 74.28 75.09 73.56 74.28 74.74 73.60
75.61 76.43 77.44 77.95 78.19 78.02 77.47 77.34 77.13 77.04 76.89 76.22 76.88 76.58 76.56 76.74 76.63 76.60 76.16 75.84 75.41 75.77 75.84 75.44 75.50 76.19 75.48 75.07 75.07 74.92 74.54 74.60 74.91 74.98 74.42 74.64 74.38 74.56 74.65 75.06 72.66 74.07 74.97
76.31 76.56 77.30 77.55 77.97 77.90 77.79 77.35 77.26 76.99 76.94 76.92 76.87 76.76 76.25 76.51 76.12 76.01 76.40 76.45 76.16 75.35 75.57 75.97 75.71 76.06 75.59 74.97 74.77 74.81 75.12 75.12 75.25 75.53 74.83 74.32 75.06 74.71 74.84 75.61 73.97 73.59 73.34
75.85 76.18 76.63 77.53 77.58 77.49 77.66 77.63 77.25 77.15 77.11 77.11 77.00 76.99 76.84 76.33 76.01 75.98 76.95 76.49 76.30 76.37 75.66 75.54 75.99 76.35 75.96 75.44 75.02 74.74 74.64 74.89 74.88 75.02 75.37 74.92 75.33 75.21 74.81 75.61 74.14 74.41 74.51
74.94 75.75 76.41 76.55 77.43 77.78 77.82 77.36 77.52 77.15 76.83 76.46 76.94 76.52 76.41 76.08 76.14 76.08 76.08 75.90 76.22 75.73 75.85 75.85 75.21 76.16 76.44 76.39 75.76 75.04 74.61 74.86 74.84 75.00 75.31 74.81 74.87 75.39 75.63 74.82 74.65 74.00 73.22
72.99 74.53 75.59 76.11 76.28 76.96 76.26 77.72 77.72 77.08 76.94 76.97 76.83 76.94 77.55 76.20 76.83 75.94 76.14 75.74 75.78 75.65 75.60 75.81 75.88 75.28 76.05 75.40 75.37 75.72 74.38 74.47 74.41 75.01 75.42 74.85 75.07 75.35 75.94 76.10 75.43 74.93 73.78
73.16 73.73 75.19 75.80 76.49 76.05 75.97 76.60 76.25 76.81 76.81 77.24 76.48 77.39 77.07 76.82 77.27 76.54 76.35 76.39 76.25 76.22 75.43 75.46 75.55 75.53 75.50 75.79 74.73 74.43 74.74 74.32 74.07 74.51 75.75 74.42 75.02 75.53 75.73 76.25 75.82 74.97 74.89
72.56 73.28 74.30 75.55 76.03 76.34 76.18 75.57 76.06 75.59 74.04 70.97 73.85 76.11 77.62 76.41 75.97 76.52 75.61 77.01 77.04 78.02 76.42 76.16 75.34 75.35 75.17 75.28 75.35 75.16 74.43 74.20 74.11 74.34 75.02 74.67 75.78 75.77 76.01 76.49 75.94 75.31 75.24
72.04 72.91 73.90 75.14 75.84 75.89 76.13 75.59 76.43 75.32 74.26 71.89 72.29 74.15 74.72 75.11 75.78 76.16 76.56 76.86 76.72 77.77 76.46 75.67 75.41 74.86 74.24 73.94 73.99 74.04 74.01 74.36 73.91 74.30 74.10 74.88 75.86 75.80 75.87 75.98 76.03 75.61 75.57
73.01 73.24 74.03 74.71 75.67 76.03 75.86 76.06 76.03 76.15 76.54 74.34 72.06 72.97 73.27 73.94 72.83 73.48 74.90 75.80 76.42 75.75 77.32 75.34 74.26 74.03 74.09 73.48 72.24 72.58 73.10 74.10 74.71 74.90 74.19 74.48 75.46 75.93 75.92 76.24 76.22 76.47 76.26
74.40 74.65 74.75 75.02 75.62 76.00 76.17 76.01 76.09 74.67 75.00 74.48 73.01 71.24 71.91 72.06 72.72 71.18 71.66 74.68 75.68 76.46 75.96 75.60 74.88 73.91 73.13 73.31 72.38 72.26 72.53 73.24 74.26 75.23 75.73 75.93 75.04 75.21 75.92 76.13 75.98 76.60 76.34
75.11 74.83 75.89 75.24 75.74 76.35 76.53 76.64 75.96 75.60 74.77 74.05 73.35 72.40 71.80 71.30 71.81 71.20 71.08 71.53 75.96 74.64 74.43 74.12 73.71 72.30 72.35 72.20 71.75 72.26 72.61 72.97 73.63 75.02 75.69 75.89 75.34 74.99 75.83 76.52 75.81 75.76 76.14
75.09 75.25 75.64 76.24 76.28 76.82 76.84 76.25 75.73 74.93 73.90 73.73 73.41 73.19 72.81 73.40 71.52 70.89 72.12 74.25 74.53 72.93 73.26 72.87 72.17 71.95 71.36 71.47 71.59 72.38 72.54 71.82 73.45 74.69 75.62 76.04 76.31 75.81 75.71 75.94 75.55 75.25 75.69
74.68 75.37 75.96 76.04 76.81 76.44 76.08 75.58 74.47 74.10 73.17 73.16 73.41 73.55 73.89 73.37 73.34 72.83 71.26 72.62 73.38 72.81 72.54 72.38 72.47 72.51 71.76 71.39 71.59 72.26 73.32 73.38 74.20 74.53 72.86 75.79 76.69 76.23 76.42 76.39 76.35 75.71 75.95
73.86 74.63 75.10 75.37 76.21 74.85 73.47 73.49 72.86 71.22 72.15 71.96 72.17 72.85 73.77 73.83 73.66 71.86 71.31 71.02 71.45 70.82 71.01 72.10 72.42 71.90 71.47 72.57 70.69 71.15 71.28 72.96 72.57 73.22 74.19 74.53 74.74 75.36 76.13 76.45 76.52 75.82 76.63
73.24 74.17 73.79 71.95 73.32 73.38 73.03 74.37 74.28 72.06 71.89 71.97 72.32 72.75 72.80 72.97 72.95 73.14 73.91 73.15 73.32 71.99 72.62 72.60 71.93 71.39 71.68 72.19 69.55 69.57 68.51 70.16 71.85 73.08 74.10 73.48 73.92 74.42 74.84 75.39 76.21 76.60 76.82
73.12 70.28 69.07 68.44 69.22 71.97 73.05 73.37 72.43 71.47 70.99 70.00 70.53 70.93 72.35 73.28 73.35 73.16 73.39 73.31 73.08 73.34 72.43 73.33 72.64 72.23 71.80 69.59 72.06 70.04 66.64 65.21 68.05 68.98 69.82 70.94 71.51 71.23 73.09 74.63 75.38 75.60 75.69
69.18 69.64 66.62 67.08 69.96 70.61 71.34 72.57 72.02 71.29 70.71 69.64 70.88 72.57 73.57 73.86 73.39 73.92 74.28 74.03 73.48 73.67 73.81 73.61 73.23 72.86 72.32 70.34 71.39 71.49 70.59 69.56 66.32 65.28 67.99 68.39 70.33 70.69 70.64 71.26 72.43 72.60 73.79
69.91 68.10 66.72 68.16 67.17 67.51 70.45 72.44 71.98 71.55 71.66 70.46 72.10 74.00 74.86 74.93 74.77 74.59 74.69 74.35 73.78 72.94 73.04 73.26 73.06 72.50 72.22 71.31 70.33 70.20 70.84 70.49 70.70 67.81 65.64 67.24 68.67 67.37 68.61 72.02 71.40 71.85 72.90
69.78 68.56 68.32 66.61 66.87 68.70 68.34 70.93 71.91 71.88 71.65 70.95 72.30 73.19 73.25 73.09 73.54 73.86 73.01 72.82 73.03 72.47 71.99 72.01 73.02 72.85 72.62 72.25 72.27 71.49 70.10 69.03 67.94 67.91 68.02 66.59 66.56 65.45 65.49 66.89 70.39 72.32 72.26

GFSSE_sfc_wetblb_072.txt.gz
Wetbulb
74.74 76.82 77.98 77.16 77.04 77.44 77.86 77.95 78.20 78.39 77.61 77.22 76.65 76.31 76.66 76.10 76.23 75.91 75.37 75.70 76.10 75.87 75.50 75.29 75.29 75.59 75.71 75.76 75.76 75.29 75.15 75.01 75.34 75.48 75.49 75.31 74.79 75.17 75.44 74.65 73.85 73.69 74.22
76.02 76.99 77.82 77.86 76.96 77.12 77.35 77.84 77.98 78.27 77.95 77.58 77.42 77.07 76.43 76.14 75.73 75.64 76.04 75.97 75.87 75.89 75.89 76.09 75.90 75.95 75.82 75.99 75.49 75.15 74.96 75.44 75.96 74.88 74.74 75.50 75.27 74.20 74.04 72.62 75.84 75.20 73.58
76.01 77.07 77.22 77.91 77.63 77.01 77.32 77.29 77.67 77.70 77.53 77.05 77.18 76.89 76.60 76.27 76.08 76.06 76.41 76.37 76.02 76.22 75.92 75.98 76.27 76.35 75.23 75.15 75.13 76.09 75.73 75.87 75.98 75.26 75.01 74.39 75.08 74.83 73.55 73.52 72.91 73.77 74.37
76.54 76.63 76.82 77.71 78.08 77.27 77.55 77.47 77.21 76.84 77.14 77.10 76.97 76.78 76.60 76.77 76.67 76.17 76.21 76.19 75.98 76.00 76.19 76.36 76.52 75.65 75.07 75.02 75.07 74.96 75.78 75.85 75.87 75.18 74.65 72.00 73.12 72.75 74.53 74.10 73.11 74.38 74.88
76.72 76.67 77.26 78.17 77.66 77.38 77.38 77.24 77.50 77.44 77.33 77.39 77.12 76.90 76.65 76.66 76.90 76.59 76.04 76.49 76.26 76.50 76.26 76.07 75.90 75.15 74.98 75.18 75.56 75.34 75.64 75.67 75.50 75.29 73.57 73.82 72.65 73.97 73.80 74.34 75.14 73.98 74.15
76.75 77.56 77.41 77.91 77.31 77.22 77.17 77.30 76.90 77.27 77.30 77.19 77.12 76.65 76.42 76.41 76.20 75.87 75.96 75.82 76.16 76.18 76.39 76.20 75.85 75.35 75.74 75.92 76.04 75.84 75.66 75.44 74.98 74.42 74.02 73.72 73.84 75.14 75.53 73.57 74.08 75.27 74.46
76.74 77.57 77.90 78.16 78.52 77.95 77.25 77.12 77.31 77.29 77.13 76.95 76.96 76.25 75.82 76.01 75.76 75.87 75.89 75.81 75.87 76.27 76.00 75.87 75.88 75.43 76.00 75.83 75.93 75.89 75.39 75.01 74.99 74.14 74.42 74.28 74.52 74.77 74.67 74.99 74.13 73.84 74.53
76.47 77.24 77.29 77.81 77.82 78.19 77.42 77.34 77.26 77.18 77.07 76.86 76.91 76.67 76.67 76.40 76.13 75.84 75.54 75.54 75.97 76.04 75.73 75.84 75.63 75.85 75.62 75.42 75.33 75.08 74.70 75.06 74.66 74.48 74.24 74.61 74.11 73.74 75.20 73.66 73.83 75.01 73.21
76.82 76.86 76.44 77.77 78.15 77.76 77.54 77.32 77.21 77.04 76.94 76.92 76.88 76.80 76.39 76.63 75.99 76.03 76.52 76.25 75.84 75.63 76.01 75.40 75.74 76.12 75.64 74.99 75.18 74.90 74.65 74.88 76.33 75.14 74.35 74.38 74.20 74.22 74.84 75.26 72.78 73.70 75.08
76.38 76.70 77.28 77.34 77.11 78.13 78.00 77.22 77.31 77.14 76.65 76.55 76.63 76.43 76.20 76.16 76.02 76.11 76.33 76.32 76.54 75.95 75.78 76.08 75.93 76.22 75.61 75.23 75.04 74.90 75.04 75.04 75.60 74.74 75.34 75.50 75.51 74.91 74.81 75.97 74.05 74.44 72.96
75.47 76.07 76.71 77.04 77.36 77.53 78.00 77.79 77.01 76.96 76.73 76.84 76.96 76.69 76.04 76.40 76.31 76.40 77.14 76.19 76.46 76.16 76.17 75.79 75.95 76.57 76.09 75.63 75.18 74.96 74.88 75.34 74.57 75.14 74.80 75.56 75.76 75.36 75.29 75.81 75.00 73.85 74.45
74.05 75.27 76.07 76.48 76.72 77.27 76.22 77.92 77.27 77.23 77.26 77.08 77.18 77.37 77.29 76.48 76.60 76.23 75.90 75.30 75.87 75.87 75.81 75.87 75.53 76.07 76.39 75.19 75.13 75.23 74.77 74.93 74.87 75.10 75.56 76.08 75.57 75.34 75.65 76.26 75.19 74.80 73.92
74.51 75.13 76.08 76.56 76.88 76.31 76.07 76.22 76.42 76.34 77.78 77.02 77.73 77.24 77.17 76.98 77.11 75.95 75.88 76.17 75.92 76.06 75.78 75.57 75.78 75.39 75.39 74.96 74.43 74.56 73.88 75.11 74.92 75.26 76.62 75.67 74.96 75.29 75.71 76.86 76.20 75.09 75.04
74.47 74.98 76.00 76.84 77.01 76.88 76.18 76.04 75.99 76.10 76.15 73.98 73.34 76.38 76.08 76.38 76.98 75.86 75.25 75.58 76.86 77.44 76.34 75.88 75.44 76.15 76.15 76.06 75.94 75.47 74.65 74.37 74.72 74.71 76.49 75.37 75.53 75.62 75.69 76.51 76.74 75.77 75.17
74.54 75.32 75.84 77.02 77.59 77.20 76.87 76.38 76.18 75.82 75.14 73.44 72.93 74.29 75.30 74.50 75.37 76.42 76.81 76.96 77.72 77.71 77.53 76.50 75.37 75.84 75.48 75.67 75.79 75.71 75.53 74.61 74.23 74.79 75.50 76.01 76.01 75.93 75.86 76.51 76.94 75.94 75.32
75.09 75.54 76.18 76.65 77.73 77.60 76.82 77.74 76.90 76.62 76.34 75.89 72.79 71.74 74.38 75.90 76.10 75.58 75.00 76.82 78.01 77.45 79.66 77.16 75.23 75.00 75.41 75.54 75.37 74.95 74.87 75.24 75.03 74.54 74.77 75.99 76.38 76.25 76.31 76.47 76.35 76.49 75.96
75.82 76.09 76.58 76.94 77.51 77.75 77.86 77.95 77.71 77.26 77.48 77.07 75.74 71.92 71.85 74.58 73.45 75.75 75.07 76.62 75.75 77.87 77.30 78.41 77.04 75.97 75.16 75.55 75.36 74.44 74.03 74.91 75.21 75.10 75.21 75.06 75.77 75.90 76.32 76.26 76.21 76.32 76.80
76.62 77.03 77.46 77.21 77.32 77.82 78.29 79.01 78.09 77.77 77.91 78.80 75.79 75.69 71.61 72.63 72.66 74.42 74.12 73.73 75.12 75.65 77.35 76.81 77.20 76.78 74.50 73.79 74.64 74.60 74.09 74.51 74.85 75.56 76.01 76.18 75.58 75.92 75.82 75.87 76.22 75.95 76.12
77.22 77.67 78.04 78.09 77.73 78.42 78.00 78.91 79.62 78.72 77.76 77.62 75.95 74.84 72.80 74.04 72.28 72.84 72.78 72.48 74.08 74.13 76.72 76.68 75.13 74.85 73.49 73.60 73.31 73.83 74.19 74.17 74.76 74.55 75.29 76.17 76.78 76.24 75.50 76.20 75.94 75.99 76.42
77.34 78.10 78.34 77.97 78.07 78.64 78.05 78.28 78.17 77.31 76.59 75.59 75.15 75.22 75.41 72.98 73.10 71.35 71.55 72.60 74.37 74.77 75.22 75.07 74.79 74.59 73.66 73.41 73.06 72.88 73.84 74.49 73.92 73.83 75.11 76.34 75.47 73.91 76.12 76.78 76.84 76.42 75.95
76.77 77.37 77.81 77.63 78.00 77.18 76.22 75.05 75.31 75.89 75.42 74.23 74.64 75.69 74.85 75.52 72.52 73.07 72.22 71.85 71.92 72.59 74.64 74.68 74.16 73.77 73.19 74.32 74.62 73.49 73.59 74.66 74.84 74.86 75.44 75.76 75.01 75.84 76.77 78.58 79.40 77.52 77.34
75.96 77.04 76.80 76.21 75.88 75.71 73.60 72.28 76.34 75.65 75.26 74.02 74.46 74.81 75.15 75.22 75.16 73.39 71.68 71.10 72.02 71.36 71.75 72.43 72.39 71.45 74.43 76.13 73.36 72.73 70.37 70.63 73.99 74.14 75.54 74.97 74.98 75.57 75.80 76.69 76.97 77.39 78.02
75.61 75.28 73.64 75.08 75.84 74.65 74.59 75.32 74.89 74.68 73.69 72.81 72.60 73.49 74.48 74.77 75.32 75.49 74.95 74.16 75.86 74.57 74.51 74.94 74.97 73.52 73.16 74.72 74.80 72.56 69.35 67.18 71.44 74.46 72.84 73.33 74.32 74.27 74.92 75.69 76.05 76.43 77.09
75.66 73.96 71.88 72.47 74.10 74.76 76.08 75.82 75.22 73.63 72.88 72.63 72.41 73.16 74.26 74.94 74.76 75.10 74.95 75.01 75.25 73.57 76.15 74.25 75.60 74.73 73.97 71.74 74.46 74.07 74.25 72.62 67.83 67.34 69.62 70.60 71.43 72.19 73.18 74.06 73.88 74.55 75.65
73.86 70.45 70.63 70.66 72.14 73.70 74.98 74.71 73.60 73.49 74.01 74.35 73.03 75.11 76.29 76.43 75.77 75.03 75.62 75.23 75.12 75.52 75.24 74.90 74.64 74.48 73.54 72.04 71.06 71.32 72.07 71.63 71.37 68.02 66.09 68.84 69.85 69.10 70.39 72.91 72.09 74.68 75.23
72.86 70.55 68.33 66.50 67.01 72.65 72.07 73.61 74.75 74.58 74.32 73.88 73.15 76.38 77.13 77.61 77.29 75.57 75.13 75.07 74.84 74.73 73.64 73.54 73.85 74.27 74.17 73.94 73.43 72.72 71.27 70.21 69.63 69.27 68.40 69.76 69.16 67.31 66.05 67.49 70.71 72.95 74.84